Location: Izdebno
(52.6670°N, 16.2170°E)
Time: 03:54:36
(UTC+02:00)

Transit 2A - Pass Details

Date: 29 February 2024
Orbit: 596 x 956 km, 66.7° (Epoch: 21 April)

Event Time Altitude Azimuth Distance (km) Brightness Sun altitude
Rises 03:42:38 0° 316° (NW) 2,999 - -27.6°
Reaches altitude 10° 03:44:58 10° 309° (NW) 2,129 - -27.3°
Maximum altitude 03:49:26 39° 241° (WSW) 1,087 - -26.7°
Drops below altitude 10° 03:54:20 10° 174° (S) 2,330 - -26.0°
Exits shadow 03:56:31 - 168° (SSE) 3,146 9.1 -25.7°
Sets 03:56:59 0° 167° (SSE) 3,318 9.2 -25.6°
